STARLINK-11198, 60114

Orbit data source: Space-Track

STARLINK-11198, 60114 is a payload satellite owned by SpaceX/Seattle (US) in LEO that was launched on Mon, 24 Jun 2024 UTC via an FALCON 9 launch vehicle from the Air Force Western Test Range (AFWTR). Payload-class satellites include a variety of spacecraft equipped with specific instruments for various scientific and technological missions. These include communications satellites like Starlink; space stations such as the ISS; scientific satellites like the Hubble; Earth observation satellites from companies like Planet Labs, Umbra, and HawkEye 360; GPS; miniature CubeSats for education and research; and military/defense satellites.

Loading next visibility...
Identifier
60114, 2024-118B
Orbit
LEO
Last TLE update
11 hours ago
Origin
Manufacturer
SpaceX/Seattle
Mission
Operational spacecraft
Bus & Motor
STARLINK V2M, Unknown motor
Mass
730 kg wet, ~700 kg dry
Launch date (UTC)
2024-06-24 (1 year ago)
Launch vehicle
FALCON 9
Launch site
Air Force Western Test Range (AFWTR)
Object type
Payload
Rocket body
Debris
Shape & HBR
Unknown
Radar Cross Section
Large (>1 m²)

Expand to show TLE details & history

TLE from 11 hours ago
0 STARLINK-11198
1 60114U 24118B   25181.96560910 -.00000772  00000-0 -15188-5 0  9997
2 60114  53.1589  22.4334 0000931  69.3939 290.7179 15.69712858 59332
Epoch: 2025-06-30T23:10Z
TLE epoch observation values (Epoch: 2025-06-30T23:10:28.626Z)
Latitude
0.00001°
Longitude
115.54629°
Altitude
360.412 km
Speed
7.694 km/s
True Right ascension
01h 29m 44s
True Declination
0° 00' 00"
Sunlit
Object was in daylight at epoch
Visualization orbit readout
Latitude
50.25926°
Longitude
-130.39103°
Altitude
365.072 km
Speed
7.697 km/s
Apparent Right ascension
09h 33m 31s
Apparent Declination
6° 47' 37"
Sunlit
Object is in daylight
Visualization observer readout
Local Sidereal Time
21:57:47
Azimuth
8.244° NNE
Elevation
-42.955°
Doppler factor
1
Orbital elements
Apogee altitude
360.607 km
Perigee altitude
359.352 km
Semi-major axis
6,738.116 km
Eccentricity
0.00009
Inclination
53.1589°
RAAN
22.4334°
Arg. of periapsis
69.3939°
True anomaly
Unknown
Mean anomaly
290.7179°
Eccentric anomaly
Unknown
Mean motion
3.92406 °/min
Orbital period
91.74 mins
BSTAR
-0.0000015188
Loading maneuver chart data...
Loading SW <> Apogee altitude chart data...
Loading historical data...
Loading historical data...
Loading historical data...
Loading historical data...
Loading historical data...
Loading historical data...
Loading historical data...

STARLINK-11198 Visibility forecast

Observer location: undefined°, undefined°

Span
Click to sort rows by Start time (UTC) header in descending order
Start Az.
Max El. time (UTC)
Max El. Az.
Max El.
End time (UTC)
End Az.
5 mins2025-07-01 16:10:21.622Z230.57° WSW2025-07-01 16:12:21.622Z241.495° WSW43.944°2025-07-01 16:15:21.622Z49.308° ENE
4 mins2025-07-01 22:35:21.622Z322.854° NNW2025-07-01 22:37:21.622Z43.484° NE39.412°2025-07-01 22:39:21.622Z112.905° SE
|